Regional Weather Roundup
Issued by NWS Mt. Holly, NJ

Home | Current Version | Previous Version | Text Only | Print | Product List | Glossary On
Versions: 1 2 3 4 5 6 7 8 9 10 11 12 13 14 15 16 17 18 19 20 21 22 23 24 25 26 27 28 29 30 31 32 33 34 35 36 37 38 39 40 41 42 43 44 45 46 47 48 49 50
336
ASUS41 KPHI 100612
RWRPHI

REGIONAL WEATHER ROUNDUP
NATIONAL WEATHER SERVICE MOUNT HOLLY NJ
100 AM EST WED FEB 10 2016

NOTE:  "FAIR" INDICATES FEW OR NO CLOUDS BELOW 12,000 FEET WITH NO
SIGNIFICANT WEATHER AND/OR OBSTRUCTIONS TO VISIBILITY.

 * = STATION DOES NOT REPORT PRECIPITATION (E.G. RAIN, SNOW, ETC.)
        OR FOG.

NJZ015>026-100700-
SOUTHERN NEW JERSEY

CITY           SKY/WX    TMP DP  RH WIND       PRES   REMARKS
POMONA         CLOUDY    33  31  92 W5        29.62R WCI  29
6HR MIN TEMP:  33; 6HR MAX TEMP:  35; 6HR PCP:  0.03;

WILDWOOD*      CLOUDY    36  28  75 W12       29.64S WCI  27
MILLVILLE      CLOUDY    34  32  92 W8        29.63S FOG     WCI  27
WRIGHTSTOWN    CLOUDY    32  32 100 W2        29.59S
MOUNT HOLLY    CLOUDY    32  31  96 CALM      29.62R FOG
TRENTON        CLOUDY    32  30  92 SW3       29.59F FOG
6HR MIN TEMP:  31; 6HR MAX TEMP:  32; 6HR PCP:  0.02;


$$
NJZ001>014-100700-
NORTHERN NEW JERSEY

CITY           SKY/WX    TMP DP  RH WIND       PRES   REMARKS
SUSSEX         LGT SNOW  30  27  88 CALM      29.56S FOG
ANDOVER*         N/A     30  28  92 CALM      29.56F
MORRISTOWN     LGT SNOW  30  28  93 CALM      29.60S
NEWARK         LGT SNOW  32  29  88 W5        29.60F FOG     WCI  27
TETERBORO      CLOUDY    33  26  75 CALM      29.59F
CALDWELL       LGT SNOW  31  28  89 CALM      29.60F FOG
SOMERVILLE     CLOUDY    31  29  92 CALM      29.59S FOG
ALLAIRE*       CLOUDY    30  25  80 CALM      29.60S
TOMS RIVER*    CLOUDY    32  28  86 W5        29.61S WCI  27

$$
PAZ043-044-047-054-055-060>062-066>071-100700-
EASTERN PENNSYLVANIA

CITY           SKY/WX    TMP DP  RH WIND       PRES   REMARKS
PHILADELPHIA   CLOUDY    34  29  82 W9        29.63S WCI  27
6HR MIN TEMP:  34; 6HR MAX TEMP:  35; 6HR PCP:  0.02;

NORTH PHILA    CLOUDY    34  31  88 W6        29.63R FOG     WCI  29
BLUE BELL*       N/A     30  30 100 CALM      29.60S
DOYLESTOWN     CLOUDY    29  28  96 SW5       29.59S WCI  24
QUAKERTOWN*    CLOUDY    28  28 100 CALM      29.59S
PERKASIE*      CLOUDY    28  28 100 SW3       29.59S FOG
POTTSTOWN      LGT SNOW  28  27  96 CALM      29.62R FOG
LANCASTER      CLOUDY    29  27  92 W12       29.62S FOG     WCI  19
COATESVILLE    CLOUDY    30  30 100 W7        29.61S WCI  23
READING        CLOUDY    31  27  85 W10       29.60S WCI  22
6HR MIN TEMP:  30; 6HR MAX TEMP:  31; 6HR PCP: TRACE;

ALLENTOWN      CLOUDY    30  28  93 SW6       29.58F FOG     WCI  24
6HR MIN TEMP:  30; 6HR MAX TEMP:  32; 6HR PCP:  0.11;

MOUNT POCONO   LGT SNOW  25  22  88 W6        29.48F FOG     WCI  18
6HR MIN TEMP:  26; 6HR MAX TEMP:  28; 6HR PCP:  0.04;

HAZLETON       LGT SNOW  30  28  93 W7        29.54S WCI  23
LEHIGHTON      LGT SNOW  30  30 100 CALM      29.59S
WILKES BARRE   LGT SNOW  30  28  92 SW7       29.54R FOG     WCI  23

$$
DEZALL-MDZ008-012-015-019-020-100700-
DELAWARE AND EASTERN MARYLAND

CITY           SKY/WX    TMP DP  RH WIND       PRES   REMARKS
WILMINGTON     CLOUDY    32  29  88 W14       29.64S WCI  22
6HR MIN TEMP:  32; 6HR MAX TEMP:  33; 6HR PCP:  0.06;

DOVER          CLOUDY    33  31  93 W14       29.63F WCI  23
GEORGETOWN     CLOUDY    34  28  79 NW6       29.66S WCI  29
6HR MIN TEMP:  34; 6HR MAX TEMP:  37;

EASTON         CLOUDY    33  25  73 NW9G18    29.71S WCI  25
PATUXENT       CLOUDY    33  20  58 NW14      29.69S WCI  23
OCEAN CITY     CLOUDY    33  28  81 W8        29.66S WCI  26
WALLOPS ISLAND CLOUDY    34  31  88 W5        29.68S WCI  30
CAMBRIDGE      PTCLDY    32  23  69 NW8       29.67S WCI  25
SALISBURY      CLOUDY    34  27  75 W6        29.66S WCI  29

$$
PAZ001-021-NYZ056-072-MDZ011-DCZ001-100700-
OTHER NEARBY LOCATIONS

CITY           SKY/WX    TMP DP  RH WIND       PRES   REMARKS
HARRISBURG     FLURRIES  30  25  81 W13       29.63S WCI  20
STATE COLLEGE  CLOUDY    27  23  83 W12       29.61S WCI  17
WILLIAMSPORT   CLOUDY    32  26  78 W14       29.58R WCI  22
BINGHAMTON     FOG       27  25  92 CALM      29.48F VSB 1/2
NEW YORK CITY  CLOUDY    33  26  75 CALM      29.61F
BALTIMORE      CLOUDY    30  21  69 W14G24    29.67S WCI  19
WASHINGTON DC  CLOUDY    32  19  58 NW10      29.71S WCI  24

$$




USA.gov is the U.S. government's official web portal to all federal, state and local government web resources and services.